Location: Unspecified
(0.0000°N, 0.0000°E)
Time: 19:03:14
(UTC+00:00)

Vanguard 3 - Pass Details

Date: 27 November 2019
Orbit: 508 x 3263 km, 33.3° (Epoch: 08 December)

Event Time Altitude Azimuth Distance (km) Brightness Sun altitude
Rises 11:04:36 0° 278° (W) 5,249 11.2 66.4°
Reaches altitude 10° 11:08:34 10° 291° (WNW) 4,659 11.0 66.8°
Maximum altitude 11:19:30 26° 342° (NNW) 4,349 10.9 67.8°
Drops below altitude 10° 11:33:58 10° 31° (NNE) 6,151 11.6 68.6°
Sets 11:40:33 0° 43° (NE) 7,219 11.8 68.8°
